| time (UTC) | temp F | wind direction | speed MPH | gust MPH | rain 1hr in | rain 24hr in | rain mn in | humidity % | barometer mb |
| 20260503020014 | 58 | 350 | 0.0 | 0.0 | 0.00 | 0.00 | 0.00 | 62 | 1013.1 |
| 20260503014516 | 60 | 349 | 0.0 | 1.0 | 0.00 | 0.00 | 0.00 | 59 | 1012.9 |
| 20260503013112 | 61 | 354 | 0.0 | 1.0 | 0.00 | 0.00 | 0.00 | 54 | 1012.8 |
| 20260503011511 | 63 | 353 | 0.0 | 1.0 | 0.00 | 0.00 | 0.00 | 48 | 1012.8 |
| 20260503010011 | 65 | 9 | 0.0 | 1.0 | 0.00 | 0.00 | 0.00 | 39 | 1012.7 |
| 20260503004510 | 67 | 103 | 0.0 | 3.0 | 0.00 | 0.00 | 0.00 | 31 | 1012.8 |
| 20260503003011 | 68 | 42 | 0.0 | 1.0 | 0.00 | 0.00 | 0.00 | 29 | 1012.8 |
| 20260503001510 | 69 | 359 | 1.0 | 4.0 | 0.00 | 0.00 | 0.00 | 28 | 1012.7 |
| 20260503000009 | 70 | 141 | 0.0 | 7.0 | 0.00 | 0.00 | 0.00 | 26 | 1012.7 |
| 20260502234509 | 71 | 342 | 1.0 | 9.0 | 0.00 | 0.00 | 0.00 | 27 | 1012.7 |
| 20260502233008 | 72 | 357 | 0.0 | 4.0 | 0.00 | 0.00 | 0.00 | 27 | 1012.7 |
| 20260502231515 | 71 | 324 | 2.0 | 7.0 | 0.00 | 0.00 | 0.00 | 26 | 1012.8 |
| 20260502230006 | 72 | 260 | 3.0 | 7.0 | 0.00 | 0.00 | 0.00 | 25 | 1012.8 |
| 20260502224505 | 72 | 290 | 2.0 | 6.0 | 0.00 | 0.00 | 0.00 | 25 | 1012.8 |
| 20260502223003 | 71 | 139 | 0.0 | 5.0 | 0.00 | 0.00 | 0.00 | 24 | 1013.0 |
| 20260502221502 | 73 | 55 | 2.0 | 6.0 | 0.00 | 0.00 | 0.00 | 24 | 1013.0 |
| 20260502220059 | 72 | 156 | 1.0 | 7.0 | 0.00 | 0.00 | 0.00 | 25 | 1013.2 |
| 20260502214557 | 71 | 248 | 1.0 | 4.0 | 0.00 | 0.00 | 0.00 | 23 | 1013.4 |
| 20260502213056 | 71 | 50 | 0.0 | 5.0 | 0.00 | 0.00 | 0.00 | 23 | 1013.6 |
| 20260502211559 | 72 | 244 | 2.0 | 4.0 | 0.00 | 0.00 | 0.00 | 24 | 1013.6 |
| 20260502210054 | 72 | 96 | 0.0 | 5.0 | 0.00 | 0.00 | 0.00 | 25 | 1013.8 |
| 20260502204552 | 72 | 129 | 0.0 | 4.0 | 0.00 | 0.00 | 0.00 | 24 | 1013.9 |
| 20260502203049 | 71 | 340 | 0.0 | 7.0 | 0.00 | 0.00 | 0.00 | 27 | 1014.1 |
| 20260502201546 | 71 | 65 | 0.0 | 3.0 | 0.00 | 0.00 | 0.00 | 25 | 1014.2 |
| 20260502200044 | 71 | 295 | 0.0 | 3.0 | 0.00 | 0.00 | 0.00 | 24 | 1014.5 |
| 20260502194541 | 70 | 321 | 2.0 | 5.0 | 0.00 | 0.00 | 0.00 | 25 | 1014.7 |
| 20260502193045 | 69 | 243 | 0.0 | 6.0 | 0.00 | 0.00 | 0.00 | 26 | 1014.8 |
| 20260502191540 | 68 | 68 | 1.0 | 4.0 | 0.00 | 0.00 | 0.00 | 27 | 1015.0 |
| 20260502190034 | 69 | 56 | 1.0 | 5.0 | 0.00 | 0.00 | 0.00 | 29 | 1015.1 |
| 20260502184530 | 68 | 231 | 1.0 | 8.0 | 0.00 | 0.00 | 0.00 | 28 | 1015.3 |
| 20260502183027 | 67 | 279 | 0.0 | 4.0 | 0.00 | 0.00 | 0.00 | 30 | 1015.5 |
| 20260502181524 | 67 | 318 | 1.0 | 4.0 | 0.00 | 0.00 | 0.00 | 30 | 1015.6 |
| 20260502163058 | 53 | 75 | 0.0 | 2.0 | 0.00 | 0.00 | 0.00 | 66 | 1016.9 |
| 20260502161619 | 49 | 131 | 0.0 | 1.0 | 0.00 | 0.00 | 0.00 | 75 | 1017.1 |
| 20260502160110 | 45 | 312 | 0.0 | 0.0 | 0.00 | 0.00 | 0.00 | 84 | 1017.4 |
| 20260502151535 | 39 | 313 | 0.0 | 0.0 | 0.00 | 0.00 | 0.00 | 91 | 1018.2 |
| 20260502123018 | 29 | 313 | 0.0 | 0.0 | 0.00 | 0.00 | 0.00 | 92 | 1018.7 |
| 20260502121513 | 29 | 313 | 0.0 | 0.0 | 0.00 | 0.00 | 0.00 | 92 | 1018.6 |
| 20260502114508 | 29 | 313 | 0.0 | 0.0 | 0.00 | 0.00 | 0.00 | 92 | 1018.8 |
| 20260502113007 | 30 | 313 | 0.0 | 0.0 | 0.00 | 0.00 | 0.00 | 92 | 1018.8 |
| 20260502111505 | 30 | 313 | 0.0 | 0.0 | 0.00 | 0.00 | 0.00 | 92 | 1018.8 |
| 20260502110002 | 30 | 313 | 0.0 | 0.0 | 0.00 | 0.00 | 0.00 | 92 | 1018.9 |
| 20260502104600 | 30 | 313 | 0.0 | 0.0 | 0.00 | 0.00 | 0.00 | 92 | 1018.9 |
| 20260502103058 | 30 | 313 | 0.0 | 0.0 | 0.00 | 0.00 | 0.00 | 92 | 1018.9 |
| 20260502101604 | 31 | 313 | 0.0 | 0.0 | 0.00 | 0.00 | 0.00 | 92 | 1018.9 |
| 20260502071532 | 35 | 313 | 0.0 | 0.0 | 0.00 | 0.00 | 0.00 | 91 | 1018.7 |
| 20260502070030 | 35 | 313 | 0.0 | 0.0 | 0.00 | 0.00 | 0.00 | 91 | 1018.6 |
| 20260502064534 | 36 | 313 | 0.0 | 0.0 | 0.00 | 0.00 | 0.00 | 91 | 1018.5 |
| 20260502063034 | 36 | 313 | 0.0 | 0.0 | 0.00 | 0.00 | 0.00 | 91 | 1018.4 |
| 20260502061529 | 37 | 313 | 0.0 | 0.0 | 0.00 | 0.00 | 0.00 | 90 | 1018.3 |
| 20260502060029 | 38 | 313 | 0.0 | 0.0 | 0.00 | 0.00 | 0.00 | 90 | 1018.3 |
| 20260502054528 | 38 | 313 | 0.0 | 0.0 | 0.00 | 0.00 | 0.00 | 90 | 1018.2 |
| 20260502053027 | 39 | 313 | 0.0 | 0.0 | 0.00 | 0.00 | 0.00 | 89 | 1018.2 |
| 20260502051530 | 39 | 313 | 0.0 | 0.0 | 0.00 | 0.00 | 0.00 | 89 | 1018.2 |
| 20260502050034 | 40 | 313 | 0.0 | 0.0 | 0.00 | 0.00 | 0.00 | 88 | 1018.1 |
| 20260502044526 | 41 | 313 | 0.0 | 0.0 | 0.00 | 0.00 | 0.00 | 87 | 1018.2 |
| 20260502043026 | 41 | 313 | 0.0 | 0.0 | 0.00 | 0.00 | 0.00 | 87 | 1018.1 |
| 20260502041529 | 42 | 313 | 0.0 | 0.0 | 0.00 | 0.00 | 0.00 | 86 | 1018.0 |
| 20260502040025 | 43 | 313 | 0.0 | 0.0 | 0.00 | 0.00 | 0.00 | 85 | 1017.9 |
| 20260502034524 | 44 | 313 | 0.0 | 0.0 | 0.00 | 0.00 | 0.00 | 83 | 1017.8 |
| 20260502033026 | 45 | 313 | 0.0 | 0.0 | 0.00 | 0.00 | 0.00 | 82 | 1017.6 |
| 20260502031523 | 47 | 313 | 0.0 | 0.0 | 0.00 | 0.00 | 0.00 | 80 | 1017.3 |
| 20260502030029 | 48 | 313 | 0.0 | 0.0 | 0.00 | 0.00 | 0.00 | 77 | 1017.2 |
| 20260502024526 | 50 | 313 | 0.0 | 0.0 | 0.00 | 0.00 | 0.00 | 74 | 1017.0 |
| 20260502023022 | 51 | 313 | 0.0 | 0.0 | 0.00 | 0.00 | 0.00 | 72 | 1016.7 |
| 20260502021521 | 53 | 313 | 0.0 | 0.0 | 0.00 | 0.00 | 0.00 | 66 | 1016.6 |